Location: Pianadetto
(44.4000°N, 10.1000°E)
Time: 20:21:11
(UTC+00:00)

Cosmos 1461 - Pass Details

Date: 26 May 2022
Orbit: 516 x 638 km, 65.0° (Epoch: 02 July)

Event Time Altitude Azimuth Distance (km) Brightness Sun altitude
Rises 00:03:10 0° 319° (NW) 2,744 6.9 -23.7°
Reaches altitude 10° 00:05:25 10° 313° (NW) 1,865 5.9 -23.6°
Enters shadow 00:08:11 34° 284° (WNW) 959 4.0 -23.5°
